Flag for United Kingdom Weather past 2 weeks in Swindon, England, United Kingdom

Now
45 °F

Scattered clouds.


Feels Like: 40 °F
Forecast: 40 / 48 °F
Wind: 9 mph from West

Location: Brize Norton

Current Time: Dec 20, 2014 at 9:46:40 AM

Latest Report: Dec 20, 2014 at 8:50 AM


Visibility: N/A

Pressure: 30.24 "Hg

Humidity: 71%

Dew point: 36 °F

Location of SwindonLocation

Historic Weather in Swindon — Graph

°F

Swindon temperature yesterday

Maximum temperature yesterday: 54 °F (at 12:50 AM)
Minimum temperature yesterday: 41 °F (at 8:50 PM)
Average temperature yesterday: 47 °F

Past Weeks' High & Low Weather Summary

 TemperatureHumidityPressure
High55 °F (Dec 17, 12:50 PM)100% (Dec 6, 5:50 AM)30.39 "Hg (Dec 6, 5:50 AM)
Low28 °F (Dec 6, 5:50 AM)57% (Dec 7, 2:50 PM)29.21 "Hg (Dec 12, 4:50 AM)
Average43 °F85%29.93 "Hg
* Reported Dec 5 8:50 AM — Dec 20 8:50 AM, Swindon, Weather by CustomWeather, © 2014

Note: Actual official high and low records may vary slightly from our data, if they occured in-between our weather recording intervals... More about our weather records

Advertising

Swindon weather history for previous 24 hours

 ConditionsComfort  
Time TempWeatherWind HumidityBarometerVisibility
8:50 AM
Dec 20
45 °FScattered clouds.9 mph71%30.24 "HgN/A
7:50 AM46 °FPassing clouds.10 mph62%30.21 "HgN/A
6:50 AM45 °FPassing clouds.8 mph71%30.21 "HgN/A
5:50 AM45 °FPassing clouds.7 mph71%30.21 "HgN/A
4:50 AM45 °FPassing clouds.8 mph71%30.21 "HgN/A
3:50 AM43 °FPassing clouds.10 mph76%30.18 "HgN/A
2:50 AM43 °FPassing clouds.8 mph76%30.18 "HgN/A
1:50 AM41 °FPassing clouds.9 mph81%30.18 "HgN/A
12:50 AM41 °FClear.8 mph81%30.18 "Hg10 mi
11:50 PM
Dec 19
41 °FClear.10 mph81%30.18 "Hg10 mi
10:50 PM41 °FClear.12 mph81%30.18 "Hg10 mi
9:50 PM41 °FClear.9 mph81%30.18 "Hg10 mi
8:50 PM41 °FClear.9 mph81%30.15 "Hg10 mi
7:50 PM43 °FClear.8 mph76%30.15 "Hg10 mi
6:50 PM43 °FClear.9 mph76%30.12 "Hg10 mi
5:50 PM43 °FPassing clouds.12 mph76%30.09 "HgN/A
4:50 PM45 °FPassing clouds.7 mph71%30.09 "HgN/A
3:50 PM45 °FPassing clouds.8 mph66%30.07 "HgN/A
2:50 PM46 °FPassing clouds.12 mph62%30.04 "HgN/A
1:50 PM48 °FPartly sunny.12 mph58%30.01 "HgN/A
12:50 PM48 °FPartly sunny.12 mph62%30.01 "HgN/A
11:50 AM48 °FPassing clouds.9 mph62%30.01 "HgN/A
10:50 AM46 °FPassing clouds.13 mph66%29.98 "HgN/A
9:50 AM46 °FPassing clouds.6 mph66%29.95 "HgN/A
Weather by CustomWeather, © 2014

See weather overviewHow to use our weather pages